Weather History for St. Louis, MO

Change the Weather History Date:

Saturday, July 6, 2013

  Actual Average Record
Temperature  
Mean Temperature 79 °F 80 °F  
Max Temperature 88 °F 89 °F 106 °F (2012)
Min Temperature 70 °F 71 °F 51 °F (1972)
Degree Days  
Heating Degree Days 0 0  
Month to date heating degree days 0 0  
Since 1 June heating degree days 1 5  
Since 1 July heating degree days 0 0  
Cooling Degree Days 14 15  
Month to date cooling degree days 52 90  
Year to date cooling degree days 600 598  
Since 1 June cooling degree days 389 424  
Growing Degree Days 30 (Base 50)    
Moisture  
Dew Point 64 °F    
Average Humidity 64    
Maximum Humidity 84    
Minimum Humidity 43    
Precipitation  
Precipitation 0.07 in 0.14 in 3.10 in (1987)
Month to date precipitation 0.61 0.78  
Year to date precipitation 30.68 21.43  
Snow  
Snow 0.00 in 0.00 in 0.00 in (2013)
Month to date snowfall 0.0 0.0  
Since 1 June snowfall 0.0 0.0  
Since 1 July snowfall 0.0 0.0  
Snow Depth 0.00 in    
Sea Level Pressure  
Sea Level Pressure 30.00 in    
Wind  
Wind Speed 7 mph (SSE)    
Max Wind Speed 23 mph    
Max Gust Speed 28 mph    
Visibility 10 miles    
Events Rain , Thunderstorm    
T = Trace of Precipitation, MM = Missing Value Source: NWS Daily Summary

Daily Weather History Graph

Daily Weather History Graph

Search for Another Location

Airport:

Trip Planner

Search our weather history database for the weather conditions in past years. The results will help you decide how hot, cold, wet, or windy it might be!

Date:

Astronomy

Jul. 06, 2013 Rise Set
Actual Time 5:43 AM CDT 8:29 PM CDT
Civil Twilight 5:11 AM CDT 9:00 PM CDT
Nautical Twilight 4:31 AM CDT 9:40 PM CDT
Astronomical Twilight 3:46 AM CDT 10:25 PM CDT
Moon 4:28 AM CDT (7/6) 7:11 PM CDT (7/6)
Length of Visible Light 15h 49m
Length of Day
14h 46m
Waning Crescent, 2% of the Moon is Illuminated
Jul 6
Waning Crescent
Jul 8
New
Jul 15
First Quarter
Jul 22
Full
Jul 29
Last Quarter

Hourly Weather History & Observations

Time (CDT) Temp. Heat Index Dew Point Humidity Pressure Visibility Wind Dir Wind Speed Gust Speed Precip Events Conditions
12:51 AM 75.0 °F - 64.9 °F 71% 30.01 in 10.0 mi SE 5.8 mph - N/A   Mostly Cloudy
1:51 AM 73.0 °F - 64.9 °F 76% 30.01 in 10.0 mi ESE 3.5 mph - N/A   Partly Cloudy
2:51 AM 72.0 °F - 64.9 °F 78% 30.00 in 10.0 mi ESE 4.6 mph - N/A   Partly Cloudy
3:51 AM 71.1 °F - 66.0 °F 84% 30.00 in 10.0 mi SE 5.8 mph - N/A   Partly Cloudy
4:51 AM 71.1 °F - 66.0 °F 84% 30.01 in 10.0 mi ESE 4.6 mph - N/A   Mostly Cloudy
5:51 AM 71.1 °F - 66.0 °F 84% 30.01 in 10.0 mi ESE 5.8 mph - N/A   Mostly Cloudy
6:51 AM 72.0 °F - 66.9 °F 84% 30.02 in 10.0 mi Calm Calm - N/A   Mostly Cloudy
7:51 AM 73.9 °F - 66.9 °F 79% 30.03 in 10.0 mi South 4.6 mph - N/A   Scattered Clouds
8:51 AM 79.0 °F - 68.0 °F 69% 30.03 in 10.0 mi SW 3.5 mph - N/A   Partly Cloudy
9:51 AM 81.0 °F 83.3 °F 66.9 °F 62% 30.03 in 10.0 mi WSW 8.1 mph - N/A   Scattered Clouds
10:51 AM 82.9 °F 85.4 °F 66.9 °F 58% 30.02 in 10.0 mi SSW 5.8 mph - N/A   Mostly Cloudy
11:51 AM 84.9 °F 86.1 °F 64.0 °F 49% 30.02 in 10.0 mi SW 8.1 mph - N/A   Mostly Cloudy
12:51 PM 87.1 °F 87.8 °F 63.0 °F 44% 30.00 in 10.0 mi Calm Calm - N/A   Mostly Cloudy
1:51 PM 86.0 °F 87.6 °F 64.9 °F 49% 29.98 in 10.0 mi East 12.7 mph - N/A   Mostly Cloudy
2:51 PM 87.1 °F 88.3 °F 64.0 °F 46% 29.97 in 10.0 mi ESE 10.4 mph - N/A   Mostly Cloudy
3:51 PM 87.1 °F 88.9 °F 64.9 °F 48% 29.96 in 10.0 mi ESE 9.2 mph - N/A   Mostly Cloudy
4:51 PM 87.1 °F 88.3 °F 64.0 °F 46% 29.94 in 10.0 mi East 10.4 mph - N/A   Mostly Cloudy
5:51 PM 86.0 °F 86.3 °F 62.1 °F 44% 29.94 in 10.0 mi ESE 9.2 mph - N/A   Mostly Cloudy
6:51 PM 80.1 °F 80.4 °F 57.0 °F 45% 29.96 in 10.0 mi SSW 15.0 mph - 0.00 in Rain Light Rain
6:58 PM 77.0 °F - 60.8 °F 57% 29.99 in 8.0 mi SW 17.3 mph 23.0 mph 0.01 in Rain , Thunderstorm Light Thunderstorms and Rain
7:18 PM 73.4 °F - 62.6 °F 69% 30.00 in 8.0 mi West 15.0 mph - 0.01 in Rain , Thunderstorm Light Thunderstorms and Rain
7:51 PM 72.0 °F - 61.0 °F 68% 29.99 in 8.0 mi NW 13.8 mph - 0.07 in Rain Light Rain
8:51 PM 73.0 °F - 62.1 °F 68% 29.98 in 10.0 mi ENE 3.5 mph - 0.00 in   Mostly Cloudy
9:51 PM 71.1 °F - 63.0 °F 75% 30.00 in 10.0 mi SE 5.8 mph - N/A   Mostly Cloudy
10:51 PM 72.0 °F - 61.0 °F 68% 30.00 in 10.0 mi SE 8.1 mph - N/A   Scattered Clouds
11:51 PM 73.9 °F - 63.0 °F 68% 30.00 in 10.0 mi SSE 5.8 mph - N/A   Partly Cloudy